Flag for Canada

Past Weather in Deline, Northwest Territories, Canada — Yesterday and Last 2 Weeks

Now
59 °F

Refreshingly cool.


Feels Like: 58 °F
Forecast: 54 / 34 °F
Wind: 5 mph from South

Location: Deline
Current Time: Sep 22, 2020 at 5:54:56 pm
Latest Report: Sep 22, 2020 at 5:00 pm
Visibility: N/A
Pressure29.70 "Hg
Humidity: 36%
Dew Point: 32 °F
Location of DelineLocation

Past Weather in Deline — Graph

°F

Deline Temperature Yesterday

Maximum temperature yesterday: 54 °F (at 4:00 pm)
Minimum temperature yesterday: 27 °F (at 8:00 am)
Average temperature yesterday: 40 °F

High & Low Weather Summary for the Past Weeks

 TemperatureHumidityPressure
High64 °F (Sep 19, 3:00 pm)100% (Sep 9, 6:00 am)30.39 "Hg (Sep 9, 6:00 am)
Low17 °F (Sep 15, 6:00 am)33% (Sep 19, 4:00 pm)29.50 "Hg (Sep 18, 11:00 pm)
Average42 °F77%29.98 "Hg
* Reported Sep 7 4:00 pm — Sep 22 4:00 pm, Deline. Weather by CustomWeather, © 2020

Note: Actual official high and low records may vary slightly from our data, if they occured in-between our weather recording intervals... More about our weather records

Deline Weather History for the Previous 24 Hours

Scroll right to see more
 ConditionsComfort  
Time TempWeatherWind HumidityBarometerVisibility
4:00 pm
Tue, Sep 22
58 °FRefreshingly cool.2 mph37%29.70 "HgN/A
3:00 pm57 °FRefreshingly cool.2 mph45%29.70 "HgN/A
2:00 pm55 °FRefreshingly cool.3 mph43%29.70 "HgN/A
1:00 pm52 °FCool.2 mph58%29.70 "HgN/A
12:00 pm49 °FCool.2 mph66%29.70 "HgN/A
11:00 am45 °FQuite cool.No wind74%29.71 "HgN/A
10:00 am40 °FQuite cool.1 mph81%29.72 "HgN/A
9:00 am31 °FChilly.2 mph96%29.71 "HgN/A
8:00 am29 °FChilly.2 mph96%29.70 "HgN/A
7:00 am30 °FChilly.2 mph97%29.70 "HgN/A
6:00 am34 °FChilly.3 mph91%29.69 "HgN/A
5:00 am37 °FChilly.5 mph88%29.69 "HgN/A
4:00 am40 °FQuite cool.6 mph84%29.68 "HgN/A
3:00 am41 °FQuite cool.6 mph80%29.68 "HgN/A
2:00 am40 °FChilly.6 mph87%29.68 "HgN/A
1:00 am34 °FChilly.6 mph93%29.70 "HgN/A
12:00 am34 °FChilly.5 mph90%29.70 "HgN/A
11:00 pm
Mon, Sep 21
36 °FChilly.5 mph84%29.70 "HgN/A
10:00 pm37 °FChilly.2 mph86%29.71 "HgN/A
9:00 pm41 °FQuite cool.1 mph82%29.72 "HgN/A
8:00 pm49 °FCool.3 mph64%29.72 "HgN/A
7:00 pm49 °FCool.3 mph68%29.72 "HgN/A
6:00 pm52 °FCool.7 mph59%29.73 "HgN/A
5:00 pm54 °FCool.8 mph55%29.73 "HgN/A
Weather by CustomWeather, © 2020

See weather overview